Location: Unspecified
(0.0000°N, 0.0000°E)
Time: 22:55:45
(UTC+00:00)

Transit 4A - Visible Passes

Search period start: 19 November 2019 00:00
Search period end: 29 November 2019 00:00
Orbit: 869 x 976 km, 66.8° (Epoch: 18 November)

Date Brightness Start Highest point End Pass type
(mag) Time Alt. Az. Time Alt. Az. Time Alt. Az.
19 Nov 8.9 20:14:38 10° SSW 20:18:46 43° SSW 20:18:46 43° SSW visible
20 Nov 9.6 18:40:57 10° SE 18:44:10 14° ESE 18:45:09 14° E visible
20 Nov 9.0 20:24:10 10° SW 20:28:43 41° WSW 20:28:43 41° WSW visible
21 Nov 9.0 18:48:26 10° SSE 18:53:31 25° ESE 18:55:10 22° E visible
21 Nov 9.6 20:34:10 10° SW 20:38:45 29° W 20:38:45 29° W visible
22 Nov 8.4 18:56:52 10° S 19:02:50 42° ESE 19:05:15 30° ENE visible
22 Nov 10.1 20:44:53 10° WSW 20:48:50 17° WNW 20:48:50 17° WNW visible
23 Nov 7.9 19:05:46 10° SSW 19:12:08 71° ESE 19:15:23 30° NNE visible
24 Nov 8.2 19:15:03 10° SSW 19:21:25 71° WNW 19:25:33 23° N visible
25 Nov 9.0 19:24:44 10° SW 19:30:42 41° WNW 19:35:45 14° N visible
26 Nov 9.9 19:34:57 10° WSW 19:39:59 25° WNW 19:44:58 10° NNW visible
27 Nov 10.5 19:46:08 10° W 19:49:18 14° WNW 19:52:26 10° NW visible
28 Nov 10.3 05:10:57 10° NNE 05:14:34 17° ENE 05:18:13 10° ESE visible
28 Nov 8.0 18:06:05 10° SSW 18:12:30 84° ESE 18:18:48 10° NNE visible
